默认 日期 大小 文件数 浏览量 最新下载 xml
05 31磁力链接相关资源由用户搜索指令自动获取,结果来源于网络,本站不存储任何资料,亦不承担任何责任,请于24小时内删除,搜索到8478个磁力,显示前4000条数据,用时19ms。
    ... .flac": 17550117, "WG2019-05-3102.flac": 70347359, "WG2019-05-3103.flac": 57346590 ... , "WG2019-05-3104.flac": 45871747 ... Text Document.txt": 668, "2019-05-31-Wavy all stars-Ardmore, PA ...
创建时间: 2019-06-17 01:44:23 大小:428.88 MB 文件数量:11 热度:8 最近下载:2025-08-03 07:47:05
    {"nhlp.18.05.31.chloe.toy.showing.the.pink[N1C].mp4": 997503570}
创建时间: 2019-06-17 01:53:31 大小:951.29 MB 文件数量:1 热度:15 最近下载:2025-08-11 18:47:02
    {"RARBG.txt": 30, "RARBG_DO_NOT_MIRROR.exe": 99, "PornstarPlatinum.19.05.31.Sexy.Vanessa.2.Legends.1.Great.Scene.XXX.SD.MP4-KLEENEX.mp4": 261839697}
创建时间: 2019-06-17 03:30:49 大小:249.71 MB 文件数量:3 热度:12 最近下载:2025-08-19 11:31:02
    {"RARBG.txt": 30, "RARBG_DO_NOT_MIRROR.exe": 99, "hitzefrei.19.05.31.lullu.gun.the.porn.couple.de.mp4": 2764113093, "hitzefrei.19.05.31.lullu.gun.the.porn.couple.de.nfo": 5202}
创建时间: 2019-06-17 07:35:47 大小:2.57 GB 文件数量:4 热度:21 最近下载:2025-06-20 22:20:02
    {"Sample": {"allover30.19.05.31.alejandra.exotic.ladies-sample.mp4": 104630090}, "[XvX]endorsed by torrentgalaxy.org .nfo": 691, "allover30.19.05.31.alejandra.exotic.ladies.mp4": 941588916}
创建时间: 2019-06-17 22:53:46 大小:997.75 MB 文件数量:3 热度:5 最近下载:2025-01-07 05:44:03
    {"PornMegaLoad.18.05.31.A.Hot.Lass.Named.Carla4Garda.XXX.SD.mp4": 158426621}
创建时间: 2019-06-17 23:28:53 大小:151.09 MB 文件数量:1 热度:8 最近下载:2025-08-10 22:59:02
    {"Provided by torrentgalaxy.org .nfo": 691, "BlowBangGirls.19.05.31.Sabrina.XXX.720p.WEB.x264-GalaXXXy.mkv": 501827871}
创建时间: 2019-06-18 02:30:10 大小:478.58 MB 文件数量:2 热度:4 最近下载:2021-06-17 16:25:58
    {"Jawbreaker - 2019-05-31 Primavera Sound, Barcelona, Spain [1080p].ts": 1819891700, "Jawbreaker - 2019-05-31 Primavera Sound, Barcelona, Spain [1080p].md5": 209, "Jawbreaker - 2019-05-31 Primavera Sound, Barcelona, Spain [1080p].txt": 4567}
创建时间: 2019-06-18 04:00:46 大小:1.69 GB 文件数量:3 热度:3 最近下载:2021-06-17 16:25:58
    {"Provided by torrentgalaxy.org .nfo": 691, "PornMegaLoad.19.05.31.Sigal.Acon.A.Girl.Named.Sigal.XXX.720p.WEB.x264-GalaXXXy.mkv": 219019805}
创建时间: 2019-06-18 04:03:38 大小:208.87 MB 文件数量:2 热度:17 最近下载:2025-07-06 18:40:02
    {"Sample": {"newsensations.19.05.31.india.summer-sample.mp4": 96588079}, "[XvX]endorsed by torrentgalaxy.org .nfo": 691, "newsensations.19.05.31.india.summer.mp4": 2618642337}
创建时间: 2019-06-18 06:18:46 大小:2.53 GB 文件数量:3 热度:17 最近下载:2025-08-13 03:18:05
    {"RARBG.txt": 30, "RARBG_DO_NOT_MIRROR.exe": 99, "ggw.19.05.31.addie.and.dava.wild.scissoring.at.the.pool.mp4": 2134518671, "ggw.19.05.31.addie.and.dava.wild.scissoring.at.the.pool.nfo": 5223}
创建时间: 2019-06-18 07:30:00 大小:1.99 GB 文件数量:4 热度:17 最近下载:2025-08-06 03:14:04
    ... }, "brothalovers.19.05.31.sophia.leone.mp4": 1738723637, "brothalovers.19.05.31.sophia.leone ...
创建时间: 2019-06-18 12:40:34 大小:1.66 GB 文件数量:13 热度:8 最近下载:2025-02-22 10:50:01
    {"brownbunnies.19.05.31.september.reign.mp4": 306856026}
创建时间: 2019-06-18 12:55:27 大小:292.64 MB 文件数量:1 热度:4 最近下载:2022-04-13 07:17:40
    {"dvd1.ISO": 4573757440, "dvd1.MDS": 4317, "dvd2.ISO": 6775373824, "dvd2.MDS": 8417, "2013-05-31 Padua Italy (DVD Dubbing Guy-2 DVD Set).txt": 1403}
创建时间: 2019-06-18 14:55:21 大小:10.57 GB 文件数量:5 热度:4 最近下载:2022-04-13 06:37:30
    {"RARBG.txt": 30, "RARBG_DO_NOT_MIRROR.exe": 99, "ConorCoxxx.19.05.31.Melanie.Hicks.Im.Here.To.Suck.Some.Cock.And.Swallow.Cum.XXX.SD.MP4-KLEENEX.mp4": 259671631}
创建时间: 2019-06-18 18:22:51 大小:247.64 MB 文件数量:3 热度:13 最近下载:2025-03-02 05:57:01
    {"RARBG.txt": 30, "RARBG_DO_NOT_MIRROR.exe": 99, "girlsoutwest.19.05.31.pippy.in.pjs.4k.mp4": 1196392097, "girlsoutwest.19.05.31.pippy.in.pjs.4k.nfo": 1393}
创建时间: 2019-06-18 19:31:12 大小:1.11 GB 文件数量:4 热度:7 最近下载:2025-10-17 13:31:03
    {"Donate.url": 127, "Download 720p & 1080p HEVC porn [PornRips.to].url": 110, "RawAttack.19.05.31.Riley.Nixon.Episode.2.XXX.1080p.HEVC.x265.PRT.mp4": 723668237}
创建时间: 2019-06-18 21:30:52 大小:690.14 MB 文件数量:3 热度:19 最近下载:2025-07-22 17:58:01
    {"propertysex.19.05.31.dani.lynn.keep.your.clothes.on.mp4": 263861050}
创建时间: 2019-06-18 22:06:17 大小:251.64 MB 文件数量:1 热度:5 最近下载:2022-04-13 06:37:04
    {"Van.Gogh.Brush.with.Genius.2009.BD.REMUX.VC-1.1080P.DTSHDMA.Mysilu.ts": 8825910980, "Van.Gogh.Brush.with.Genius.2009.BD.REMUX.VC-1.1080P.DTSHDMA.Mysilu.ts.par2": 57920, "Van.Gogh.Brush.with.Genius.2009.BD.REMUX.VC-1.1080P.DTSHDMA.Mysilu.ts.vol0+1.PAR2": ...
创建时间: 2019-06-19 00:36:18 大小:8.23 GB 文件数量:5 热度:12 最近下载:2025-09-21 03:50:01
    {"gw.19.05.31.cadence.lux.and.addison.lee.real.estate.rumble[N1C].mp4": 1574897227}
创建时间: 2019-06-19 01:39:55 大小:1.47 GB 文件数量:1 热度:8 最近下载:2024-12-30 16:47:02